AFR2297 TNCM-GOBD

Flight info

Callsign AFR2297
Flight time 5h 50m
Altitude 39000
Route ELOPO DCT OTUSU DCT ELJEZ/M084F390 DCT 2150N DCT 2340N DCT 22N036W DCT ERNEK/N0485F390 DCT EVKAS DCT BVT DCT MOGSA DCT PIVSA
Aircraft A359/H-SDE2E3GHIJ3J4J5LM1ORWXY/LB1D1

Departure

Time 2026-04-25 15:22
Airport Princess Juliana International Airport (TNCM)

Arrival

Time 2026-04-25 21:13
Airport Blaise Diagne International Airport (GOBD)
Time Latitude Longitude Altitude Speed Heading
2026-04-25 14:49 18.04314 -63.11429 27 ft 0 kts 351°
2026-04-25 15:12 18.04287 -63.11425 25 ft 4 kts 349°
2026-04-25 15:12 18.04260 -63.11420 25 ft 4 kts 354°
2026-04-25 15:12 18.04236 -63.11421 24 ft 4 kts 39°
2026-04-25 15:12 18.04230 -63.11430 24 ft 3 kts 82°
2026-04-25 15:13 18.04227 -63.11453 26 ft 0 kts 81°
2026-04-25 15:17 18.04227 -63.11452 26 ft 1 kts 81°
2026-04-25 15:17 18.04233 -63.11407 24 ft 12 kts 82°
2026-04-25 15:17 18.04219 -63.11325 27 ft 12 kts 135°
2026-04-25 15:18 18.04142 -63.11298 27 ft 8 kts 170°
2026-04-25 15:18 18.04140 -63.11297 27 ft 0 kts 170°
2026-04-25 15:19 18.04113 -63.11292 27 ft 12 kts 170°
2026-04-25 15:19 18.04055 -63.11306 27 ft 16 kts 220°
2026-04-25 15:19 18.04007 -63.11494 27 ft 23 kts 262°
2026-04-25 15:19 18.03983 -63.11662 28 ft 24 kts 261°
2026-04-25 15:20 18.03964 -63.11836 28 ft 22 kts 276°
2026-04-25 15:20 18.03984 -63.11919 28 ft 1 kts 279°
2026-04-25 15:20 18.03973 -63.11948 28 ft 3 kts 226°
2026-04-25 15:20 18.03960 -63.11948 28 ft 2 kts 172°
2026-04-25 15:21 18.03951 -63.11937 28 ft 5 kts 130°
2026-04-25 15:21 18.03950 -63.11910 28 ft 4 kts 83°
2026-04-25 15:21 18.03959 -63.11843 28 ft 25 kts 81°
2026-04-25 15:21 18.04027 -63.11351 27 ft 110 kts 81°
2026-04-25 15:22 18.04170 -63.10303 174 ft 167 kts 84°
2026-04-25 15:22 18.04152 -63.09122 1131 ft 161 kts 108°
2026-04-25 15:22 18.03477 -63.08143 1664 ft 178 kts 146°
2026-04-25 15:22 18.02276 -63.07577 1986 ft 202 kts 162°
2026-04-25 15:23 18.00860 -63.07156 2434 ft 220 kts 165°
2026-04-25 15:23 17.99299 -63.06716 2746 ft 243 kts 165°
2026-04-25 15:23 17.97632 -63.06244 3378 ft 251 kts 165°
2026-04-25 15:23 17.95955 -63.05674 4100 ft 255 kts 158°
2026-04-25 15:24 17.94445 -63.04660 4790 ft 263 kts 139°
2026-04-25 15:24 17.93194 -63.03234 5490 ft 269 kts 130°
2026-04-25 15:24 17.92091 -63.01616 6197 ft 275 kts 126°
2026-04-25 15:24 17.91414 -63.00485 6646 ft 278 kts 124°
2026-04-25 15:25 17.90093 -62.98127 7622 ft 282 kts 123°
2026-04-25 15:25 17.89102 -62.96333 8401 ft 285 kts 123°
2026-04-25 15:25 17.88088 -62.94523 9194 ft 289 kts 123°
2026-04-25 15:25 17.87046 -62.92702 9966 ft 292 kts 124°
2026-04-25 15:26 17.85966 -62.90849 10450 ft 306 kts 124°
2026-04-25 15:26 17.84821 -62.88909 10728 ft 326 kts 124°
2026-04-25 15:26 17.83587 -62.86831 10967 ft 345 kts 124°
2026-04-25 15:26 17.82285 -62.84639 11217 ft 362 kts 124°
2026-04-25 15:27 17.80931 -62.82355 11542 ft 374 kts 124°
2026-04-25 15:27 17.79551 -62.80021 12072 ft 378 kts 124°
2026-04-25 15:27 17.76748 -62.75274 13165 ft 387 kts 124°
2026-04-25 15:28 17.75322 -62.72862 13688 ft 391 kts 124°
2026-04-25 15:28 17.73884 -62.70432 14157 ft 394 kts 124°
2026-04-25 15:28 17.72428 -62.67972 14627 ft 397 kts 124°
2026-04-25 15:28 17.70968 -62.65508 14924 ft 398 kts 124°
2026-04-25 15:29 17.69522 -62.63066 14996 ft 399 kts 124°
2026-04-25 15:29 17.68055 -62.60590 14998 ft 400 kts 124°
2026-04-25 15:29 17.66671 -62.58044 14995 ft 403 kts 118°
2026-04-25 15:29 17.65656 -62.55295 14998 ft 406 kts 108°
2026-04-25 15:30 17.65133 -62.52373 15062 ft 410 kts 98°
2026-04-25 15:30 17.64947 -62.49372 15496 ft 414 kts 94°
2026-04-25 15:30 17.64928 -62.46335 16012 ft 417 kts 91°
2026-04-25 15:30 17.64987 -62.43281 16492 ft 420 kts 90°
2026-04-25 15:31 17.65069 -62.40207 16953 ft 423 kts 90°
2026-04-25 15:31 17.65146 -62.37152 17391 ft 426 kts 90°
2026-04-25 15:31 17.65210 -62.34032 17864 ft 429 kts 90°
2026-04-25 15:31 17.65259 -62.30884 18304 ft 433 kts 91°
2026-04-25 15:32 17.65297 -62.27730 18694 ft 435 kts 91°
2026-04-25 15:32 17.65328 -62.24541 19085 ft 438 kts 91°
2026-04-25 15:32 17.65357 -62.21334 19473 ft 441 kts 91°
2026-04-25 15:33 17.65412 -62.14851 20249 ft 447 kts 91°
2026-04-25 15:33 17.65439 -62.11577 20653 ft 451 kts 91°
2026-04-25 15:33 17.65468 -62.08272 21047 ft 454 kts 91°
2026-04-25 15:33 17.65496 -62.04953 21458 ft 457 kts 91°
2026-04-25 15:34 17.65524 -62.01606 21870 ft 460 kts 91°
2026-04-25 15:34 17.65551 -61.98241 22283 ft 463 kts 92°
2026-04-25 15:34 17.65579 -61.94850 22691 ft 466 kts 92°
2026-04-25 15:34 17.65597 -61.92598 22959 ft 468 kts 92°
2026-04-25 15:35 17.65658 -61.84602 23831 ft 475 kts 92°
2026-04-25 15:35 17.65684 -61.81080 24169 ft 479 kts 92°
2026-04-25 15:35 17.65708 -61.77622 24503 ft 482 kts 92°
2026-04-25 15:36 17.65757 -61.70548 25223 ft 488 kts 92°
2026-04-25 15:36 17.65781 -61.66971 25596 ft 492 kts 92°
2026-04-25 15:36 17.65804 -61.63373 25981 ft 495 kts 92°
2026-04-25 15:37 17.65827 -61.59748 26374 ft 499 kts 92°
2026-04-25 15:37 17.65850 -61.56097 26759 ft 502 kts 92°
2026-04-25 15:37 17.65872 -61.52411 27152 ft 506 kts 92°
2026-04-25 15:37 17.65893 -61.48707 27539 ft 510 kts 92°
2026-04-25 15:38 17.65914 -61.44980 27922 ft 513 kts 92°
2026-04-25 15:38 17.65934 -61.41226 28304 ft 516 kts 92°
2026-04-25 15:38 17.65953 -61.37450 28670 ft 520 kts 92°
2026-04-25 15:38 17.65972 -61.33650 29038 ft 523 kts 92°
2026-04-25 15:39 17.65991 -61.29812 29426 ft 526 kts 92°
2026-04-25 15:39 17.66009 -61.25961 29771 ft 529 kts 92°
2026-04-25 15:39 17.66026 -61.22148 30085 ft 533 kts 92°
2026-04-25 15:39 17.66042 -61.18248 30366 ft 535 kts 92°
2026-04-25 15:40 17.66058 -61.14334 30662 ft 538 kts 92°
2026-04-25 15:40 17.66063 -61.13009 30755 ft 538 kts 92°
2026-04-25 15:40 17.66087 -61.06464 31221 ft 542 kts 92°
2026-04-25 15:40 17.66101 -61.02504 31487 ft 544 kts 92°
2026-04-25 15:41 17.66114 -60.98533 31803 ft 545 kts 92°
2026-04-25 15:41 17.66126 -60.94548 32049 ft 547 kts 92°
2026-04-25 15:41 17.66137 -60.90548 32372 ft 547 kts 92°
2026-04-25 15:41 17.66148 -60.86553 32736 ft 547 kts 92°
2026-04-25 15:42 17.66158 -60.82560 33061 ft 547 kts 92°
2026-04-25 15:42 17.66167 -60.78571 33396 ft 547 kts 92°
2026-04-25 15:42 17.66175 -60.74631 33713 ft 547 kts 92°
2026-04-25 15:42 17.66182 -60.70641 33955 ft 549 kts 92°
2026-04-25 15:43 17.66188 -60.66640 34183 ft 550 kts 92°
2026-04-25 15:43 17.66194 -60.62632 34486 ft 548 kts 92°
2026-04-25 15:43 17.66199 -60.58643 34809 ft 547 kts 92°
2026-04-25 15:43 17.66203 -60.54655 35111 ft 546 kts 93°
2026-04-25 15:44 17.66207 -60.50666 35394 ft 546 kts 93°
2026-04-25 15:44 17.66209 -60.46687 35677 ft 545 kts 93°
2026-04-25 15:44 17.66211 -60.42716 35963 ft 544 kts 93°
2026-04-25 15:44 17.66212 -60.38755 36260 ft 543 kts 93°
2026-04-25 15:45 17.66212 -60.34800 36519 ft 542 kts 93°
2026-04-25 15:45 17.66211 -60.30849 36769 ft 542 kts 93°
2026-04-25 15:45 17.66209 -60.26887 37037 ft 542 kts 93°
2026-04-25 15:45 17.66208 -60.25609 37106 ft 542 kts 93°
2026-04-25 15:46 17.66202 -60.18954 37343 ft 545 kts 93°
2026-04-25 15:46 17.66198 -60.15032 37595 ft 544 kts 93°
2026-04-25 15:46 17.66194 -60.11070 37874 ft 543 kts 93°
2026-04-25 15:46 17.66189 -60.07116 38097 ft 542 kts 93°
2026-04-25 15:47 17.66183 -60.03159 38317 ft 542 kts 93°
2026-04-25 15:47 17.66175 -59.99201 38520 ft 542 kts 93°
2026-04-25 15:47 17.66167 -59.95252 38721 ft 541 kts 94°
2026-04-25 15:47 17.66159 -59.91303 38882 ft 541 kts 94°
2026-04-25 15:48 17.66139 -59.83405 39014 ft 542 kts 93°
2026-04-25 15:48 17.66116 -59.75505 39012 ft 542 kts 93°
2026-04-25 15:49 17.66090 -59.67590 39013 ft 542 kts 93°
2026-04-25 15:49 17.66061 -59.59689 39008 ft 542 kts 93°
2026-04-25 15:50 17.66029 -59.51842 39015 ft 542 kts 93°
2026-04-25 15:50 17.65993 -59.43938 39023 ft 541 kts 94°
2026-04-25 15:51 17.65968 -59.38663 39018 ft 541 kts 94°
2026-04-25 15:51 17.65912 -59.28147 39013 ft 541 kts 94°
2026-04-25 15:52 17.65868 -59.20245 39025 ft 541 kts 94°
2026-04-25 15:52 17.65820 -59.12353 39021 ft 541 kts 94°
2026-04-25 15:53 17.65768 -59.04463 39017 ft 541 kts 94°
2026-04-25 15:53 17.65715 -58.96632 39016 ft 538 kts 94°
2026-04-25 15:54 17.65659 -58.88806 39020 ft 536 kts 94°
2026-04-25 15:54 17.65598 -58.80993 39018 ft 536 kts 94°
2026-04-25 15:55 17.65535 -58.73180 39019 ft 536 kts 94°
2026-04-25 15:55 17.65468 -58.65365 39018 ft 536 kts 94°
2026-04-25 15:56 17.65399 -58.57544 39016 ft 536 kts 94°
2026-04-25 15:56 17.65339 -58.51053 39016 ft 536 kts 94°
2026-04-25 15:57 17.65252 -58.41962 39021 ft 537 kts 94°
2026-04-25 15:57 17.65173 -58.34113 39025 ft 538 kts 94°
2026-04-25 15:58 17.65105 -58.27588 39025 ft 538 kts 94°
2026-04-25 15:58 17.65021 -58.19743 39028 ft 538 kts 94°
2026-04-25 15:59 17.64934 -58.11917 39024 ft 535 kts 94°
2026-04-25 15:59 17.64845 -58.04133 39032 ft 534 kts 94°
2026-04-25 16:00 17.64767 -57.97665 39032 ft 534 kts 94°
2026-04-25 16:00 17.64655 -57.88567 39036 ft 533 kts 94°
2026-04-25 16:01 17.64556 -57.80798 39023 ft 532 kts 94°
2026-04-25 16:01 17.64455 -57.73107 39024 ft 531 kts 94°
2026-04-25 16:02 17.64350 -57.65355 39020 ft 531 kts 94°
2026-04-25 16:02 17.64243 -57.57596 39030 ft 531 kts 94°
2026-04-25 16:03 17.65114 -57.49873 39030 ft 537 kts 75°
2026-04-25 16:03 17.66444 -57.46215 39020 ft 539 kts 64°
2026-04-25 16:03 17.68377 -57.42848 39038 ft 539 kts 54°
2026-04-25 16:04 17.72865 -57.36547 39032 ft 540 kts 51°
2026-04-25 16:04 17.77533 -57.30359 39041 ft 540 kts 51°
2026-04-25 16:05 17.82157 -57.24198 39027 ft 542 kts 51°
2026-04-25 16:06 17.89093 -57.14829 39029 ft 542 kts 51°
2026-04-25 16:06 17.93704 -57.08570 39029 ft 541 kts 51°
2026-04-25 16:07 17.97645 -57.01876 39037 ft 539 kts 68°
2026-04-25 16:07 17.99518 -56.94295 39029 ft 538 kts 77°
2026-04-25 16:08 18.02184 -56.86920 39035 ft 542 kts 60°
2026-04-25 16:08 18.05465 -56.79778 39036 ft 542 kts 65°
2026-04-25 16:09 18.08738 -56.72644 39033 ft 541 kts 64°
2026-04-25 16:09 18.12003 -56.65512 39031 ft 541 kts 65°
2026-04-25 16:10 18.15245 -56.58373 39033 ft 541 kts 65°
2026-04-25 16:10 18.18456 -56.51270 39030 ft 541 kts 65°
2026-04-25 16:11 18.21682 -56.44121 39032 ft 541 kts 65°
2026-04-25 16:11 18.24903 -56.36979 39030 ft 541 kts 65°
2026-04-25 16:12 18.28129 -56.29816 39029 ft 541 kts 65°
2026-04-25 16:12 18.31350 -56.22657 39030 ft 540 kts 65°
2026-04-25 16:13 18.34546 -56.15547 39030 ft 540 kts 65°
2026-04-25 16:13 18.37759 -56.08389 39040 ft 540 kts 65°
2026-04-25 16:14 18.40972 -56.01220 39032 ft 542 kts 65°
2026-04-25 16:14 18.44195 -55.94023 39040 ft 542 kts 65°
2026-04-25 16:15 18.47411 -55.86832 39034 ft 542 kts 65°
2026-04-25 16:15 18.50624 -55.79639 39036 ft 542 kts 65°
2026-04-25 16:16 18.53836 -55.72441 39033 ft 542 kts 65°
2026-04-25 16:16 18.57020 -55.65295 39036 ft 542 kts 65°
2026-04-25 16:17 18.60226 -55.58091 39037 ft 544 kts 65°
2026-04-25 16:17 18.63435 -55.50871 39029 ft 544 kts 65°
2026-04-25 16:18 18.66644 -55.43644 39039 ft 543 kts 65°
2026-04-25 16:18 18.69843 -55.36430 39039 ft 543 kts 65°
2026-04-25 16:19 18.73041 -55.29206 39041 ft 543 kts 65°
2026-04-25 16:19 18.76231 -55.21995 39045 ft 542 kts 65°
2026-04-25 16:20 18.81000 -55.11196 39039 ft 544 kts 65°
2026-04-25 16:21 18.85790 -55.00329 39035 ft 544 kts 65°
2026-04-25 16:21 18.88979 -54.93084 39040 ft 543 kts 65°
2026-04-25 16:22 18.92160 -54.85847 39037 ft 543 kts 65°
2026-04-25 16:22 18.95340 -54.78602 39043 ft 543 kts 65°
2026-04-25 16:23 18.98521 -54.71347 39043 ft 545 kts 65°
2026-04-25 16:23 19.01705 -54.64076 39042 ft 544 kts 65°
2026-04-25 16:24 19.04879 -54.56816 39042 ft 544 kts 65°
2026-04-25 16:24 19.08031 -54.49600 39038 ft 544 kts 65°
2026-04-25 16:25 19.11196 -54.42345 39043 ft 543 kts 65°
2026-04-25 16:25 19.14355 -54.35094 39048 ft 543 kts 65°
2026-04-25 16:26 19.17522 -54.27814 39042 ft 545 kts 65°
2026-04-25 16:26 19.20692 -54.20520 39046 ft 545 kts 65°
2026-04-25 16:27 19.23855 -54.13230 39047 ft 544 kts 65°
2026-04-25 16:27 19.27009 -54.05952 39046 ft 544 kts 65°
2026-04-25 16:28 19.30163 -53.98665 39040 ft 544 kts 65°
2026-04-25 16:28 19.33310 -53.91385 39050 ft 544 kts 65°
2026-04-25 16:29 19.36466 -53.84076 39048 ft 545 kts 65°
2026-04-25 16:29 19.39594 -53.76819 39048 ft 545 kts 65°
2026-04-25 16:30 19.42740 -53.69513 39049 ft 545 kts 65°
2026-04-25 16:30 19.45891 -53.62198 39051 ft 545 kts 65°
2026-04-25 16:31 19.49036 -53.54883 39063 ft 545 kts 65°
2026-04-25 16:31 19.52175 -53.47552 39048 ft 547 kts 65°
2026-04-25 16:32 19.55323 -53.40194 39047 ft 548 kts 65°
2026-04-25 16:32 19.58448 -53.32886 39048 ft 548 kts 65°
2026-04-25 16:33 19.61596 -53.25518 39048 ft 548 kts 65°
2026-04-25 16:33 19.64741 -53.18146 39050 ft 547 kts 65°
2026-04-25 16:34 19.67875 -53.10790 39056 ft 547 kts 65°
2026-04-25 16:34 19.71013 -53.03415 39047 ft 549 kts 65°
2026-04-25 16:35 19.74130 -52.96078 39051 ft 549 kts 65°
2026-04-25 16:35 19.77267 -52.88682 39050 ft 548 kts 65°
2026-04-25 16:36 19.80401 -52.81287 39050 ft 548 kts 65°
2026-04-25 16:36 19.83528 -52.73897 39052 ft 548 kts 65°
2026-04-25 16:37 19.86652 -52.66503 39051 ft 549 kts 65°
2026-04-25 16:37 19.89760 -52.59137 39053 ft 550 kts 65°
2026-04-25 16:38 19.92888 -52.51715 39044 ft 550 kts 65°
2026-04-25 16:38 19.96006 -52.44305 39053 ft 549 kts 65°
2026-04-25 16:39 19.99118 -52.36900 39053 ft 548 kts 65°
2026-04-25 16:39 20.02225 -52.29498 39052 ft 548 kts 65°
2026-04-25 16:40 20.05327 -52.22095 39055 ft 547 kts 65°
2026-04-25 16:40 20.08422 -52.14698 39052 ft 547 kts 65°
2026-04-25 16:41 20.11515 -52.07298 39056 ft 547 kts 65°
2026-04-25 16:41 20.16127 -51.96244 39053 ft 546 kts 65°
2026-04-25 16:42 20.19211 -51.88838 39055 ft 547 kts 65°
2026-04-25 16:42 20.22303 -51.81403 39049 ft 548 kts 65°
2026-04-25 16:43 20.25364 -51.74032 39045 ft 548 kts 65°
2026-04-25 16:43 20.28448 -51.66597 39052 ft 548 kts 65°
2026-04-25 16:44 20.31525 -51.59166 39059 ft 548 kts 65°
2026-04-25 16:44 20.34597 -51.51736 39059 ft 547 kts 65°
2026-04-25 16:45 20.37150 -51.45556 39053 ft 548 kts 65°
2026-04-25 16:45 20.40219 -51.38114 39051 ft 549 kts 65°
2026-04-25 16:46 20.43291 -51.30655 39055 ft 549 kts 65°
2026-04-25 16:46 20.45836 -51.24469 39053 ft 548 kts 65°
2026-04-25 16:47 20.49414 -51.15757 39053 ft 548 kts 65°
2026-04-25 16:47 20.52455 -51.08343 39058 ft 550 kts 65°
2026-04-25 16:48 20.55517 -51.00865 39062 ft 551 kts 65°
2026-04-25 16:48 20.58582 -50.93369 39062 ft 551 kts 65°
2026-04-25 16:49 20.61642 -50.85876 39058 ft 551 kts 65°
2026-04-25 16:49 20.64699 -50.78379 39059 ft 550 kts 65°
2026-04-25 16:50 20.67746 -50.70893 39052 ft 551 kts 65°
2026-04-25 16:50 20.70799 -50.63386 39048 ft 553 kts 65°
2026-04-25 16:51 20.73860 -50.55845 39050 ft 552 kts 65°
2026-04-25 16:51 20.76393 -50.49596 39062 ft 551 kts 65°
2026-04-25 16:52 20.79954 -50.40799 39059 ft 551 kts 65°
2026-04-25 16:52 20.82996 -50.33271 39060 ft 552 kts 65°
2026-04-25 16:53 20.87560 -50.21958 39058 ft 553 kts 65°
2026-04-25 16:54 20.90602 -50.14403 39055 ft 552 kts 65°
2026-04-25 16:54 20.93619 -50.06899 39071 ft 552 kts 65°
2026-04-25 16:55 20.96557 -49.99320 39065 ft 553 kts 71°
2026-04-25 16:55 20.98632 -49.91387 39060 ft 555 kts 75°
2026-04-25 16:56 21.00503 -49.83371 39061 ft 555 kts 76°
2026-04-25 16:56 21.02335 -49.75349 39061 ft 555 kts 76°
2026-04-25 16:57 21.04174 -49.67331 39061 ft 554 kts 75°
2026-04-25 16:57 21.06020 -49.59322 39061 ft 554 kts 75°
2026-04-25 16:58 21.07868 -49.51297 39064 ft 554 kts 75°
2026-04-25 16:58 21.09699 -49.43330 39062 ft 555 kts 75°
2026-04-25 16:59 21.11542 -49.35289 39064 ft 555 kts 75°
2026-04-25 16:59 21.13377 -49.27263 39059 ft 555 kts 76°
2026-04-25 17:00 21.15209 -49.19234 39060 ft 555 kts 76°
2026-04-25 17:00 21.17036 -49.11205 39057 ft 555 kts 76°
2026-04-25 17:01 21.18861 -49.03167 39069 ft 554 kts 76°
2026-04-25 17:01 21.20681 -48.95133 39062 ft 555 kts 75°
2026-04-25 17:02 21.22497 -48.87096 39061 ft 555 kts 75°
2026-04-25 17:02 21.24301 -48.79097 39061 ft 555 kts 75°
2026-04-25 17:03 21.26111 -48.71051 39067 ft 555 kts 75°
2026-04-25 17:03 21.27918 -48.62999 39064 ft 555 kts 76°
2026-04-25 17:04 21.29719 -48.54952 39076 ft 555 kts 75°
2026-04-25 17:04 21.31520 -48.46888 39064 ft 555 kts 75°
2026-04-25 17:05 21.33306 -48.38873 39070 ft 555 kts 75°
2026-04-25 17:05 21.35990 -48.26790 39069 ft 555 kts 75°
2026-04-25 17:06 21.37778 -48.18721 39069 ft 555 kts 75°
2026-04-25 17:06 21.39561 -48.10649 39069 ft 556 kts 76°
2026-04-25 17:07 21.41340 -48.02579 39068 ft 556 kts 76°
2026-04-25 17:07 21.43116 -47.94504 39078 ft 556 kts 76°
2026-04-25 17:08 21.44889 -47.86424 39068 ft 556 kts 76°
2026-04-25 17:08 21.46656 -47.78350 39076 ft 556 kts 76°
2026-04-25 17:09 21.48419 -47.70270 39081 ft 555 kts 76°
2026-04-25 17:09 21.50165 -47.62253 39081 ft 555 kts 76°
2026-04-25 17:10 21.51920 -47.54174 39070 ft 555 kts 76°
2026-04-25 17:10 21.53674 -47.46080 39070 ft 556 kts 76°
2026-04-25 17:11 21.55423 -47.37991 39067 ft 556 kts 76°
2026-04-25 17:11 21.57168 -47.29896 39069 ft 556 kts 76°
2026-04-25 17:12 21.58913 -47.21784 39068 ft 556 kts 76°
2026-04-25 17:12 21.60640 -47.13735 39075 ft 556 kts 76°
2026-04-25 17:13 21.61799 -47.08322 39073 ft 555 kts 76°
2026-04-25 17:13 21.64098 -46.97560 39072 ft 555 kts 76°
2026-04-25 17:14 21.65820 -46.89472 39072 ft 555 kts 76°
2026-04-25 17:14 21.67538 -46.81382 39073 ft 555 kts 76°
2026-04-25 17:15 21.69254 -46.73287 39072 ft 555 kts 76°
2026-04-25 17:15 21.70963 -46.65199 39072 ft 554 kts 76°
2026-04-25 17:16 21.72665 -46.57125 39073 ft 553 kts 76°
2026-04-25 17:16 21.74353 -46.49098 39075 ft 553 kts 76°
2026-04-25 17:17 21.76049 -46.41013 39072 ft 553 kts 76°
2026-04-25 17:17 21.77741 -46.32924 39074 ft 554 kts 76°
2026-04-25 17:18 21.79428 -46.24844 39089 ft 554 kts 76°
2026-04-25 17:18 21.81113 -46.16748 39080 ft 554 kts 76°
2026-04-25 17:19 21.82781 -46.08713 39077 ft 554 kts 76°
2026-04-25 17:19 21.84458 -46.00614 39072 ft 553 kts 76°
2026-04-25 17:20 21.86129 -45.92526 39073 ft 553 kts 76°
2026-04-25 17:20 21.87796 -45.84434 39079 ft 553 kts 76°
2026-04-25 17:21 21.89460 -45.76332 39072 ft 554 kts 76°
2026-04-25 17:21 21.91122 -45.68224 39078 ft 554 kts 76°
2026-04-25 17:22 21.92221 -45.62852 39076 ft 554 kts 76°
2026-04-25 17:22 21.94418 -45.52078 39082 ft 554 kts 76°
2026-04-25 17:23 21.96066 -45.43971 39081 ft 553 kts 76°
2026-04-25 17:23 21.97710 -45.35863 39081 ft 554 kts 76°
2026-04-25 17:24 21.99352 -45.27746 39082 ft 555 kts 76°
2026-04-25 17:24 22.00983 -45.19662 39079 ft 555 kts 76°
2026-04-25 17:25 22.02621 -45.11519 39082 ft 555 kts 76°
2026-04-25 17:25 22.04253 -45.03385 39080 ft 555 kts 76°
2026-04-25 17:26 22.05880 -44.95254 39081 ft 555 kts 76°
2026-04-25 17:26 22.07493 -44.87168 39081 ft 555 kts 76°
2026-04-25 17:27 22.09113 -44.79032 39083 ft 555 kts 76°
2026-04-25 17:27 22.10196 -44.73577 39084 ft 555 kts 76°
2026-04-25 17:28 22.12342 -44.62739 39081 ft 556 kts 76°
2026-04-25 17:28 22.13954 -44.54574 39083 ft 556 kts 76°
2026-04-25 17:29 22.15551 -44.46460 39084 ft 556 kts 76°
2026-04-25 17:29 22.17156 -44.38283 39082 ft 556 kts 76°
2026-04-25 17:30 22.18757 -44.30106 39088 ft 557 kts 76°
2026-04-25 17:30 22.20355 -44.21921 39092 ft 557 kts 76°
2026-04-25 17:31 22.21948 -44.13741 39083 ft 557 kts 76°
2026-04-25 17:31 22.23540 -44.05537 39089 ft 558 kts 76°
2026-04-25 17:32 22.25119 -43.97380 39089 ft 558 kts 76°
2026-04-25 17:32 22.26707 -43.89159 39088 ft 559 kts 76°
2026-04-25 17:33 22.28288 -43.80943 39091 ft 559 kts 76°
2026-04-25 17:33 22.29865 -43.72726 39088 ft 559 kts 76°
2026-04-25 17:34 22.31432 -43.64541 39089 ft 559 kts 76°
2026-04-25 17:34 22.32749 -43.57643 39089 ft 559 kts 76°
2026-04-25 17:35 22.34306 -43.49463 39083 ft 559 kts 76°
2026-04-25 17:35 22.35864 -43.41253 39088 ft 557 kts 76°
2026-04-25 17:36 22.37419 -43.33042 39091 ft 558 kts 76°
2026-04-25 17:36 22.38970 -43.24829 39091 ft 558 kts 76°
2026-04-25 17:37 22.40517 -43.16610 39094 ft 558 kts 76°
2026-04-25 17:37 22.42061 -43.08383 39093 ft 558 kts 76°
2026-04-25 17:38 22.43341 -43.01544 39097 ft 558 kts 76°
2026-04-25 17:38 22.45135 -42.91930 39094 ft 559 kts 76°
2026-04-25 17:39 22.46670 -42.83677 39091 ft 559 kts 76°
2026-04-25 17:39 22.48187 -42.75496 39091 ft 559 kts 76°
2026-04-25 17:40 22.49711 -42.67255 39091 ft 559 kts 76°
2026-04-25 17:40 22.51231 -42.59011 39098 ft 559 kts 76°
2026-04-25 17:41 22.52748 -42.50760 39091 ft 559 kts 76°
2026-04-25 17:41 22.54261 -42.42506 39091 ft 559 kts 76°
2026-04-25 17:42 22.55769 -42.34255 39094 ft 559 kts 76°
2026-04-25 17:42 22.57272 -42.26001 39094 ft 559 kts 76°
2026-04-25 17:43 22.58771 -42.17750 39096 ft 559 kts 76°
2026-04-25 17:43 22.60267 -42.09486 39097 ft 559 kts 76°
2026-04-25 17:44 22.61748 -42.01288 39097 ft 559 kts 76°
2026-04-25 17:44 22.63235 -41.93024 39097 ft 559 kts 76°
2026-04-25 17:45 22.64476 -41.86107 39100 ft 559 kts 76°
2026-04-25 17:45 22.66196 -41.76495 39106 ft 559 kts 76°
2026-04-25 17:46 22.67670 -41.68229 39097 ft 559 kts 76°
2026-04-25 17:46 22.69139 -41.59968 39099 ft 559 kts 76°
2026-04-25 17:47 22.70596 -41.51747 39101 ft 558 kts 76°
2026-04-25 17:47 22.72053 -41.43500 39100 ft 558 kts 76°
2026-04-25 17:48 22.74236 -41.31097 39101 ft 558 kts 76°
2026-04-25 17:49 22.75685 -41.22828 39099 ft 559 kts 76°
2026-04-25 17:49 22.77130 -41.14561 39102 ft 559 kts 76°
2026-04-25 17:50 22.78572 -41.06281 39102 ft 559 kts 76°
2026-04-25 17:50 22.80000 -40.98057 39102 ft 559 kts 76°
2026-04-25 17:51 22.81436 -40.89763 39104 ft 559 kts 76°
2026-04-25 17:51 22.82866 -40.81479 39102 ft 559 kts 76°
2026-04-25 17:52 22.84292 -40.73183 39102 ft 559 kts 76°
2026-04-25 17:52 22.85705 -40.64943 39104 ft 559 kts 76°
2026-04-25 17:53 22.87124 -40.56638 39098 ft 560 kts 76°
2026-04-25 17:53 22.88540 -40.48328 39101 ft 560 kts 76°
2026-04-25 17:54 22.89952 -40.40010 39102 ft 561 kts 76°
2026-04-25 17:54 22.91360 -40.31690 39102 ft 561 kts 76°
2026-04-25 17:55 22.92765 -40.23362 39105 ft 561 kts 76°
2026-04-25 17:55 22.94166 -40.15023 39102 ft 562 kts 76°
2026-04-25 17:56 22.95555 -40.06733 39102 ft 562 kts 76°
2026-04-25 17:56 22.95949 -39.98252 39100 ft 567 kts 96°
2026-04-25 17:57 22.94437 -39.89859 39101 ft 567 kts 104°
2026-04-25 17:57 22.92429 -39.81579 39104 ft 567 kts 105°
2026-04-25 17:58 22.90364 -39.73303 39102 ft 568 kts 105°
2026-04-25 17:58 22.88345 -39.64994 39102 ft 569 kts 105°
2026-04-25 17:59 22.86358 -39.56689 39109 ft 569 kts 104°
2026-04-25 17:59 22.84374 -39.48384 39100 ft 569 kts 104°
2026-04-25 18:00 22.82480 -39.40482 39105 ft 568 kts 105°
2026-04-25 18:01 22.78559 -39.24211 39102 ft 569 kts 105°
2026-04-25 18:01 22.76553 -39.15915 39105 ft 569 kts 105°
2026-04-25 18:02 22.74542 -39.07617 39103 ft 569 kts 105°
2026-04-25 18:02 22.72524 -38.99314 39100 ft 568 kts 105°
2026-04-25 18:03 22.70522 -38.91095 39102 ft 568 kts 105°
2026-04-25 18:03 22.68503 -38.82828 39104 ft 567 kts 105°
2026-04-25 18:04 22.66481 -38.74561 39102 ft 567 kts 105°
2026-04-25 18:04 22.64460 -38.66307 39110 ft 567 kts 105°
2026-04-25 18:05 22.62430 -38.58045 39092 ft 568 kts 105°
2026-04-25 18:05 22.60393 -38.49791 39102 ft 567 kts 105°
2026-04-25 18:06 22.58354 -38.41554 39108 ft 566 kts 105°
2026-04-25 18:06 22.56311 -38.33311 39102 ft 567 kts 105°
2026-04-25 18:07 22.54278 -38.25119 39102 ft 567 kts 105°
2026-04-25 18:07 22.52227 -38.16879 39105 ft 567 kts 105°
2026-04-25 18:08 22.50170 -38.08630 39102 ft 568 kts 105°
2026-04-25 18:08 22.48107 -38.00380 39102 ft 568 kts 105°
2026-04-25 18:09 22.46040 -37.92132 39101 ft 568 kts 105°
2026-04-25 18:09 22.43967 -37.83877 39102 ft 569 kts 105°
2026-04-25 18:10 22.41888 -37.75619 39102 ft 569 kts 105°
2026-04-25 18:10 22.39817 -37.67413 39102 ft 570 kts 105°
2026-04-25 18:11 22.37728 -37.59151 39094 ft 570 kts 105°
2026-04-25 18:11 22.35635 -37.50894 39103 ft 568 kts 105°
2026-04-25 18:12 22.33541 -37.42653 39106 ft 568 kts 105°
2026-04-25 18:12 22.31439 -37.34402 39104 ft 569 kts 105°
2026-04-25 18:13 22.29336 -37.26163 39099 ft 570 kts 105°
2026-04-25 18:13 22.27239 -37.17963 39103 ft 570 kts 105°
2026-04-25 18:14 22.24062 -37.05579 39101 ft 569 kts 105°
2026-04-25 18:14 22.21945 -36.97354 39109 ft 568 kts 105°
2026-04-25 18:15 22.19827 -36.89139 39102 ft 569 kts 105°
2026-04-25 18:15 22.17700 -36.80911 39102 ft 569 kts 105°
2026-04-25 18:16 22.15568 -36.72678 39109 ft 569 kts 105°
2026-04-25 18:17 22.12368 -36.60359 39091 ft 571 kts 105°
2026-04-25 18:17 22.10226 -36.52137 39100 ft 569 kts 105°
2026-04-25 18:18 22.08084 -36.43929 39101 ft 568 kts 105°
2026-04-25 18:18 22.05939 -36.35732 39102 ft 568 kts 105°
2026-04-25 18:19 22.03791 -36.27538 39102 ft 568 kts 105°
2026-04-25 18:19 22.01637 -36.19342 39103 ft 568 kts 105°
2026-04-25 18:20 21.99491 -36.11196 39084 ft 569 kts 105°
2026-04-25 18:20 21.97328 -36.02999 39102 ft 567 kts 106°
2026-04-25 18:21 21.94955 -35.94907 39104 ft 567 kts 111°
2026-04-25 18:21 21.92063 -35.87006 39102 ft 567 kts 113°
2026-04-25 18:22 21.89137 -35.79118 39102 ft 567 kts 112°
2026-04-25 18:22 21.86294 -35.71202 39104 ft 567 kts 111°
2026-04-25 18:23 21.83530 -35.63381 39088 ft 568 kts 111°
2026-04-25 18:23 21.80732 -35.55450 39100 ft 566 kts 111°
2026-04-25 18:24 21.77932 -35.47542 39105 ft 566 kts 111°
2026-04-25 18:24 21.75120 -35.39624 39099 ft 567 kts 111°
2026-04-25 18:25 21.72318 -35.31752 39099 ft 567 kts 111°
2026-04-25 18:25 21.69493 -35.23825 39105 ft 567 kts 111°
2026-04-25 18:26 21.66663 -35.15900 39097 ft 567 kts 111°
2026-04-25 18:26 21.63835 -35.07993 39100 ft 565 kts 111°
2026-04-25 18:27 21.61011 -35.00109 39097 ft 565 kts 112°
2026-04-25 18:27 21.58179 -34.92219 39097 ft 566 kts 112°
2026-04-25 18:28 21.55339 -34.84318 39099 ft 567 kts 112°
2026-04-25 18:28 21.52512 -34.76468 39100 ft 567 kts 112°
2026-04-25 18:29 21.48239 -34.64626 39097 ft 565 kts 112°
2026-04-25 18:30 21.42540 -34.48881 39100 ft 565 kts 112°
2026-04-25 18:30 21.39685 -34.41013 39100 ft 566 kts 112°
2026-04-25 18:31 21.36823 -34.33138 39094 ft 567 kts 112°
2026-04-25 18:31 21.33968 -34.25296 39090 ft 566 kts 112°
2026-04-25 18:32 21.31109 -34.17456 39093 ft 564 kts 112°
2026-04-25 18:32 21.28245 -34.09614 39094 ft 565 kts 112°
2026-04-25 18:33 21.25375 -34.01772 39091 ft 565 kts 112°
2026-04-25 18:33 21.22502 -33.93932 39091 ft 565 kts 112°
2026-04-25 18:34 21.19624 -33.86091 39091 ft 565 kts 112°
2026-04-25 18:34 21.16744 -33.78258 39088 ft 564 kts 112°
2026-04-25 18:35 21.13888 -33.70504 39090 ft 562 kts 112°
2026-04-25 18:35 21.11016 -33.62719 39090 ft 562 kts 112°
2026-04-25 18:36 21.08137 -33.54927 39090 ft 563 kts 112°
2026-04-25 18:36 21.05254 -33.47137 39088 ft 563 kts 112°
2026-04-25 18:37 21.02366 -33.39346 39088 ft 563 kts 112°
2026-04-25 18:37 20.99467 -33.31540 39089 ft 564 kts 112°
2026-04-25 18:38 20.96571 -33.23750 39083 ft 564 kts 112°
2026-04-25 18:38 20.93669 -33.15961 39083 ft 564 kts 112°
2026-04-25 18:39 20.90762 -33.08168 39086 ft 564 kts 112°
2026-04-25 18:39 20.87857 -33.00395 39086 ft 565 kts 112°
2026-04-25 18:40 20.84933 -32.92582 39083 ft 565 kts 112°
2026-04-25 18:40 20.82010 -32.84784 39086 ft 564 kts 112°
2026-04-25 18:41 20.79088 -32.77004 39082 ft 563 kts 113°
2026-04-25 18:41 20.76186 -32.69286 39078 ft 563 kts 113°
2026-04-25 18:42 20.74229 -32.64089 39082 ft 563 kts 113°
2026-04-25 18:42 20.70328 -32.53746 39083 ft 564 kts 113°
2026-04-25 18:43 20.67394 -32.45980 39075 ft 564 kts 113°
2026-04-25 18:43 20.64454 -32.38212 39073 ft 563 kts 113°
2026-04-25 18:44 20.61536 -32.30515 39079 ft 562 kts 113°
2026-04-25 18:44 20.58598 -32.22776 39077 ft 562 kts 113°
2026-04-25 18:45 20.55652 -32.15028 39075 ft 563 kts 113°
2026-04-25 18:45 20.52706 -32.07290 39079 ft 562 kts 113°
2026-04-25 18:46 20.50256 -32.00866 39078 ft 563 kts 113°
2026-04-25 18:46 20.47303 -31.93135 39055 ft 563 kts 113°
2026-04-25 18:47 20.44349 -31.85410 39065 ft 561 kts 113°
2026-04-25 18:47 20.41398 -31.77706 39069 ft 560 kts 113°
2026-04-25 18:48 20.38414 -31.70038 39068 ft 561 kts 115°
2026-04-25 18:48 20.35127 -31.62546 39071 ft 560 kts 117°
2026-04-25 18:49 20.31743 -31.55069 39066 ft 560 kts 117°
2026-04-25 18:49 20.28397 -31.47568 39065 ft 561 kts 117°
2026-04-25 18:50 20.25080 -31.40054 39064 ft 558 kts 116°
2026-04-25 18:50 20.21823 -31.32658 39066 ft 548 kts 116°
2026-04-25 18:51 20.19556 -31.26381 39070 ft 547 kts 101°
2026-04-25 18:51 20.18273 -31.17110 39066 ft 547 kts 106°
2026-04-25 18:52 20.15563 -31.09544 39058 ft 547 kts 116°
2026-04-25 18:52 20.12245 -31.02254 39059 ft 547 kts 118°
2026-04-25 18:53 20.08883 -30.94993 39050 ft 547 kts 117°
2026-04-25 18:53 20.05587 -30.87700 39059 ft 546 kts 117°
2026-04-25 18:54 20.00712 -30.76757 39059 ft 546 kts 116°
2026-04-25 18:55 19.97463 -30.69462 39058 ft 546 kts 116°
2026-04-25 18:55 19.94203 -30.62161 39059 ft 546 kts 117°
2026-04-25 18:56 19.90964 -30.54921 39059 ft 546 kts 117°
2026-04-25 18:56 19.87695 -30.47623 39062 ft 546 kts 116°
2026-04-25 18:57 19.84441 -30.40367 39063 ft 543 kts 117°
2026-04-25 18:57 19.81185 -30.33116 39066 ft 543 kts 117°
2026-04-25 18:58 19.77928 -30.25874 39065 ft 543 kts 117°
2026-04-25 18:58 19.73056 -30.15059 39046 ft 543 kts 117°
2026-04-25 18:59 19.66520 -30.00582 39048 ft 543 kts 117°
2026-04-25 19:00 19.61622 -29.89755 39056 ft 542 kts 117°
2026-04-25 19:01 19.56722 -29.78947 39056 ft 542 kts 117°
2026-04-25 19:01 19.53470 -29.71784 39054 ft 542 kts 117°
2026-04-25 19:02 19.48553 -29.60973 39040 ft 543 kts 117°
2026-04-25 19:03 19.44174 -29.51361 39051 ft 540 kts 117°
2026-04-25 19:03 19.40376 -29.43038 39043 ft 539 kts 117°
2026-04-25 19:04 19.35471 -29.32307 39045 ft 539 kts 117°
2026-04-25 19:05 19.28938 -29.18047 39041 ft 541 kts 117°
2026-04-25 19:06 19.25653 -29.10889 39037 ft 541 kts 117°
2026-04-25 19:06 19.20725 -29.00167 39045 ft 537 kts 117°
2026-04-25 19:07 19.15816 -28.89508 39042 ft 537 kts 117°
2026-04-25 19:08 19.10890 -28.78833 39037 ft 538 kts 117°
2026-04-25 19:09 19.04869 -28.65810 39039 ft 538 kts 117°
2026-04-25 19:10 18.99393 -28.53990 39035 ft 539 kts 117°
2026-04-25 19:10 18.96094 -28.46880 39034 ft 539 kts 117°
2026-04-25 19:11 18.92791 -28.39772 39033 ft 539 kts 117°
2026-04-25 19:11 18.89485 -28.32665 39033 ft 539 kts 117°
2026-04-25 19:12 18.86177 -28.25564 39027 ft 539 kts 117°
2026-04-25 19:12 18.82888 -28.18511 39031 ft 539 kts 117°
2026-04-25 19:13 18.79576 -28.11415 39027 ft 537 kts 117°
2026-04-25 19:13 18.76278 -28.04359 39027 ft 535 kts 118°
2026-04-25 19:14 18.72982 -27.97318 39031 ft 535 kts 118°
2026-04-25 19:14 18.69681 -27.90273 39029 ft 535 kts 118°
2026-04-25 19:15 18.66380 -27.83237 39027 ft 535 kts 118°
2026-04-25 19:15 18.63075 -27.76198 39033 ft 535 kts 118°
2026-04-25 19:16 18.59766 -27.69163 39027 ft 535 kts 118°
2026-04-25 19:16 18.56461 -27.62142 39028 ft 534 kts 118°
2026-04-25 19:17 18.53185 -27.55191 39029 ft 532 kts 118°
2026-04-25 19:17 18.49887 -27.48202 39026 ft 532 kts 118°
2026-04-25 19:18 18.46586 -27.41214 39023 ft 533 kts 118°
2026-04-25 19:18 18.43274 -27.34213 39023 ft 533 kts 118°
2026-04-25 19:19 18.39962 -27.27219 39024 ft 533 kts 118°
2026-04-25 19:19 18.36669 -27.20272 39002 ft 533 kts 118°
2026-04-25 19:20 18.33356 -27.13290 39017 ft 532 kts 118°
2026-04-25 19:20 18.30047 -27.06326 39021 ft 531 kts 118°
2026-04-25 19:21 18.26735 -26.99363 39019 ft 531 kts 118°
2026-04-25 19:21 18.21785 -26.88973 39018 ft 532 kts 118°
2026-04-25 19:22 18.18467 -26.82018 39019 ft 532 kts 118°
2026-04-25 19:23 18.13481 -26.71582 39009 ft 532 kts 118°
2026-04-25 19:23 18.08490 -26.61151 39015 ft 532 kts 118°
2026-04-25 19:24 18.05181 -26.54247 39015 ft 532 kts 118°
2026-04-25 19:25 17.98517 -26.40364 39009 ft 532 kts 118°
2026-04-25 19:25 17.95175 -26.33414 39009 ft 532 kts 118°
2026-04-25 19:26 17.91808 -26.26421 39007 ft 542 kts 118°
2026-04-25 19:26 17.88396 -26.19345 38999 ft 551 kts 118°
2026-04-25 19:27 17.86071 -26.14525 39005 ft 554 kts 118°
2026-04-25 19:27 17.81441 -26.04932 39008 ft 553 kts 118°
2026-04-25 19:28 17.77918 -25.97756 39004 ft 553 kts 120°
2026-04-25 19:28 17.74221 -25.90697 39003 ft 552 kts 121°
2026-04-25 19:29 17.70492 -25.83645 39008 ft 553 kts 121°
2026-04-25 19:29 17.66787 -25.76580 39005 ft 553 kts 121°
2026-04-25 19:30 17.63099 -25.69517 39005 ft 551 kts 121°
2026-04-25 19:30 17.59442 -25.62511 38999 ft 550 kts 121°
2026-04-25 19:31 17.55768 -25.55482 38999 ft 550 kts 121°
2026-04-25 19:31 17.52081 -25.48439 38998 ft 550 kts 121°
2026-04-25 19:32 17.48399 -25.41414 38997 ft 550 kts 121°
2026-04-25 19:32 17.45956 -25.36757 38997 ft 550 kts 121°
2026-04-25 19:33 17.41026 -25.27368 38999 ft 550 kts 121°
2026-04-25 19:33 17.37338 -25.20354 38989 ft 549 kts 121°
2026-04-25 19:34 17.33659 -25.13364 38989 ft 548 kts 121°
2026-04-25 19:34 17.29999 -25.06416 38988 ft 548 kts 121°
2026-04-25 19:35 17.26315 -24.99431 38989 ft 548 kts 121°
2026-04-25 19:35 17.22627 -24.92447 38987 ft 548 kts 121°
2026-04-25 19:36 17.18934 -24.85461 38990 ft 548 kts 121°
2026-04-25 19:36 17.15863 -24.79656 38988 ft 548 kts 121°
2026-04-25 19:37 17.11566 -24.71541 38987 ft 548 kts 121°
2026-04-25 19:37 17.08493 -24.65745 38980 ft 548 kts 121°
2026-04-25 19:38 17.04791 -24.58769 38985 ft 548 kts 121°
2026-04-25 19:38 17.01087 -24.51796 38985 ft 548 kts 121°
2026-04-25 19:39 16.97386 -24.44837 38960 ft 548 kts 121°
2026-04-25 19:39 16.93683 -24.37881 38960 ft 548 kts 121°
2026-04-25 19:40 16.89972 -24.30916 38965 ft 549 kts 121°
2026-04-25 19:40 16.86285 -24.24004 38968 ft 547 kts 121°
2026-04-25 19:41 16.82581 -24.17067 38966 ft 546 kts 121°
2026-04-25 19:41 16.79507 -24.11314 38974 ft 546 kts 121°
2026-04-25 19:42 16.75179 -24.03225 38971 ft 546 kts 121°
2026-04-25 19:42 16.71468 -23.96297 38977 ft 546 kts 121°
2026-04-25 19:43 16.67762 -23.89384 38977 ft 546 kts 121°
2026-04-25 19:43 16.64073 -23.82510 38968 ft 546 kts 121°
2026-04-25 19:44 16.60361 -23.75600 38968 ft 546 kts 121°
2026-04-25 19:44 16.56649 -23.68697 38969 ft 546 kts 122°
2026-04-25 19:45 16.52940 -23.61805 38964 ft 545 kts 122°
2026-04-25 19:45 16.49222 -23.54906 38953 ft 545 kts 122°
2026-04-25 19:46 16.45501 -23.48006 38956 ft 545 kts 122°
2026-04-25 19:46 16.41782 -23.41118 38957 ft 545 kts 122°
2026-04-25 19:47 16.38085 -23.34276 38953 ft 545 kts 122°
2026-04-25 19:47 16.34366 -23.27400 38951 ft 543 kts 122°
2026-04-25 19:48 16.30660 -23.20556 38952 ft 542 kts 122°
2026-04-25 19:48 16.26954 -23.13718 38952 ft 542 kts 122°
2026-04-25 19:49 16.23870 -23.08033 38957 ft 542 kts 122°
2026-04-25 19:49 16.19534 -23.00049 38954 ft 542 kts 122°
2026-04-25 19:50 16.13958 -22.89794 38937 ft 542 kts 122°
2026-04-25 19:51 16.10270 -22.82944 38926 ft 542 kts 121°
2026-04-25 19:51 16.06667 -22.76124 38943 ft 541 kts 121°
2026-04-25 19:52 16.03034 -22.69256 38945 ft 540 kts 121°
2026-04-25 19:52 15.99398 -22.62412 38949 ft 540 kts 121°
2026-04-25 19:53 15.95752 -22.55567 38950 ft 540 kts 121°
2026-04-25 19:53 15.92133 -22.48779 38952 ft 540 kts 121°
2026-04-25 19:54 15.88484 -22.41942 38950 ft 540 kts 121°
2026-04-25 19:54 15.84832 -22.35105 38950 ft 541 kts 121°
2026-04-25 19:55 15.81182 -22.28278 38945 ft 540 kts 121°
2026-04-25 19:55 15.77536 -22.21463 38950 ft 540 kts 121°
2026-04-25 19:56 15.73912 -22.14697 38947 ft 539 kts 121°
2026-04-25 19:56 15.70265 -22.07894 38945 ft 539 kts 121°
2026-04-25 19:57 15.66614 -22.01090 38942 ft 539 kts 121°
2026-04-25 19:57 15.62959 -21.94287 38944 ft 539 kts 121°
2026-04-25 19:58 15.59303 -21.87485 38938 ft 539 kts 121°
2026-04-25 19:58 15.55645 -21.80689 38937 ft 539 kts 121°
2026-04-25 19:59 15.51990 -21.73903 38939 ft 538 kts 121°
2026-04-25 19:59 15.48332 -21.67116 38940 ft 538 kts 121°
2026-04-25 20:00 15.44703 -21.60391 38939 ft 538 kts 121°
2026-04-25 20:00 15.41047 -21.53624 38938 ft 538 kts 121°
2026-04-25 20:01 15.35661 -21.43662 38937 ft 538 kts 121°
2026-04-25 20:01 15.31998 -21.36895 38932 ft 538 kts 122°
2026-04-25 20:02 15.28332 -21.30130 38926 ft 538 kts 122°
2026-04-25 20:02 15.24671 -21.23379 38935 ft 537 kts 121°
2026-04-25 20:03 15.21011 -21.16635 38931 ft 536 kts 121°
2026-04-25 20:03 15.17356 -21.09908 38928 ft 536 kts 121°
2026-04-25 20:04 15.13722 -21.03225 38930 ft 536 kts 121°
2026-04-25 20:04 15.10065 -20.96506 38929 ft 536 kts 121°
2026-04-25 20:05 15.06401 -20.89778 38931 ft 536 kts 122°
2026-04-25 20:05 15.02741 -20.83066 38926 ft 536 kts 122°
2026-04-25 20:06 14.99081 -20.76359 38931 ft 535 kts 121°
2026-04-25 20:06 14.95461 -20.69729 38930 ft 534 kts 121°
2026-04-25 20:07 14.91806 -20.63042 38923 ft 533 kts 121°
2026-04-25 20:07 14.88155 -20.56370 38921 ft 533 kts 121°
2026-04-25 20:08 14.84515 -20.49693 38922 ft 533 kts 121°
2026-04-25 20:08 14.80892 -20.43008 38921 ft 533 kts 122°
2026-04-25 20:09 14.77247 -20.36393 38924 ft 532 kts 122°
2026-04-25 20:09 14.73573 -20.29751 38921 ft 532 kts 122°
2026-04-25 20:10 14.69919 -20.23101 38912 ft 532 kts 120°
2026-04-25 20:10 14.67218 -20.15978 38914 ft 533 kts 110°
2026-04-25 20:11 14.64863 -20.08704 38917 ft 533 kts 109°
2026-04-25 20:11 14.62526 -20.01432 38916 ft 534 kts 109°
2026-04-25 20:12 14.60199 -19.94192 38911 ft 534 kts 109°
2026-04-25 20:12 14.58635 -19.89324 38911 ft 534 kts 109°
2026-04-25 20:13 14.55523 -19.79649 38908 ft 533 kts 109°
2026-04-25 20:13 14.53182 -19.72378 38908 ft 533 kts 109°
2026-04-25 20:14 14.50838 -19.65107 38906 ft 533 kts 109°
2026-04-25 20:14 14.48492 -19.57838 38905 ft 533 kts 109°
2026-04-25 20:15 14.46158 -19.50616 38906 ft 533 kts 109°
2026-04-25 20:15 14.43807 -19.43349 38906 ft 533 kts 109°
2026-04-25 20:16 14.41464 -19.36113 38903 ft 532 kts 109°
2026-04-25 20:16 14.39118 -19.28877 38900 ft 531 kts 109°
2026-04-25 20:17 14.36770 -19.21645 38897 ft 531 kts 109°
2026-04-25 20:17 14.34423 -19.14423 38897 ft 531 kts 109°
2026-04-25 20:18 14.32084 -19.07232 38901 ft 526 kts 109°
2026-04-25 20:18 14.29756 -19.00084 38898 ft 525 kts 109°
2026-04-25 20:19 14.27459 -18.92992 38889 ft 525 kts 109°
2026-04-25 20:19 14.25124 -18.85865 38889 ft 525 kts 109°
2026-04-25 20:20 14.22789 -18.78736 38886 ft 525 kts 109°
2026-04-25 20:20 14.20454 -18.71601 38886 ft 525 kts 109°
2026-04-25 20:21 14.18116 -18.64464 38886 ft 525 kts 109°
2026-04-25 20:21 14.15781 -18.57346 38882 ft 524 kts 109°
2026-04-25 20:22 14.14231 -18.52591 38883 ft 523 kts 109°
2026-04-25 20:22 14.11121 -18.43144 38882 ft 523 kts 109°
2026-04-25 20:23 14.08785 -18.36052 38881 ft 523 kts 109°
2026-04-25 20:23 14.06448 -18.28959 38876 ft 523 kts 109°
2026-04-25 20:24 14.04506 -18.23067 38878 ft 523 kts 109°
2026-04-25 20:24 14.02161 -18.15963 38878 ft 523 kts 110°
2026-04-25 20:25 13.99442 -18.07731 38873 ft 523 kts 110°
2026-04-25 20:25 13.98306 -18.01648 38875 ft 523 kts 89°
2026-04-25 20:26 13.98778 -17.97959 38874 ft 520 kts 73°
2026-04-25 20:26 14.00126 -17.94523 38875 ft 517 kts 58°
2026-04-25 20:26 14.03362 -17.87937 38871 ft 517 kts 70°
2026-04-25 20:27 14.04968 -17.80764 38871 ft 509 kts 85°
2026-04-25 20:27 14.05130 -17.77181 38875 ft 493 kts 90°
2026-04-25 20:27 14.04898 -17.73714 38872 ft 478 kts 98°
2026-04-25 20:28 14.03020 -17.67289 38865 ft 467 kts 118°
2026-04-25 20:28 13.99252 -17.61907 38862 ft 462 kts 138°
2026-04-25 20:29 13.94137 -17.57969 38862 ft 457 kts 153°
2026-04-25 20:29 13.88353 -17.55377 38854 ft 451 kts 168°
2026-04-25 20:30 13.85275 -17.54966 38862 ft 443 kts 185°
2026-04-25 20:30 13.82320 -17.55470 38860 ft 433 kts 202°
2026-04-25 20:30 13.79657 -17.56843 38860 ft 426 kts 219°
2026-04-25 20:30 13.77562 -17.58946 38859 ft 420 kts 236°
2026-04-25 20:31 13.76138 -17.61590 38868 ft 417 kts 247°
2026-04-25 20:31 13.75054 -17.64301 38860 ft 418 kts 252°
2026-04-25 20:31 13.73941 -17.70144 38861 ft 417 kts 269°
2026-04-25 20:32 13.74860 -17.76006 38864 ft 418 kts 289°
2026-04-25 20:32 13.76224 -17.78646 38876 ft 420 kts 304°
2026-04-25 20:32 13.78113 -17.80946 38890 ft 423 kts 314°
2026-04-25 20:33 13.82414 -17.85112 38868 ft 425 kts 314°
2026-04-25 20:33 13.85930 -17.88646 38872 ft 425 kts 313°
2026-04-25 20:34 13.90817 -17.93679 38873 ft 425 kts 312°
2026-04-25 20:34 13.94980 -17.98005 38872 ft 425 kts 312°
2026-04-25 20:35 13.97193 -18.00031 38875 ft 429 kts 324°
2026-04-25 20:35 13.99892 -18.01370 38878 ft 434 kts 341°
2026-04-25 20:35 14.02888 -18.01828 38876 ft 440 kts 358°
2026-04-25 20:35 14.05934 -18.01354 38875 ft 448 kts 14°
2026-04-25 20:36 14.08762 -17.99975 38874 ft 455 kts 32°
2026-04-25 20:36 14.11136 -17.97788 38876 ft 461 kts 49°
2026-04-25 20:36 14.12839 -17.94981 38880 ft 465 kts 65°
2026-04-25 20:36 14.14061 -17.91928 38873 ft 468 kts 70°
2026-04-25 20:37 14.15205 -17.85327 38871 ft 471 kts 91°
2026-04-25 20:37 14.14876 -17.81986 38869 ft 470 kts 103°
2026-04-25 20:37 14.13899 -17.78781 38871 ft 468 kts 115°
2026-04-25 20:38 14.12323 -17.75868 38870 ft 465 kts 128°
2026-04-25 20:38 14.10224 -17.73351 38867 ft 461 kts 140°
2026-04-25 20:38 14.07700 -17.71324 38865 ft 457 kts 151°
2026-04-25 20:38 14.04874 -17.69854 38865 ft 452 kts 162°
2026-04-25 20:39 14.01906 -17.68984 38865 ft 448 kts 173°
2026-04-25 20:39 13.98827 -17.68700 38864 ft 443 kts 184°
2026-04-25 20:39 13.95792 -17.69052 38860 ft 436 kts 199°
2026-04-25 20:39 13.93880 -17.69772 38866 ft 430 kts 210°
2026-04-25 20:40 13.90808 -17.72225 38867 ft 421 kts 233°
2026-04-25 20:40 13.89308 -17.74781 38870 ft 416 kts 250°
2026-04-25 20:40 13.88674 -17.77670 38875 ft 414 kts 268°
2026-04-25 20:40 13.88960 -17.80608 38873 ft 415 kts 285°
2026-04-25 20:41 13.90139 -17.83317 38873 ft 418 kts 302°
2026-04-25 20:41 13.91979 -17.85648 38870 ft 421 kts 307°
2026-04-25 20:41 13.93625 -17.88126 38875 ft 419 kts 294°
2026-04-25 20:41 13.94798 -17.90837 38603 ft 411 kts 288°
2026-04-25 20:42 13.95610 -17.93659 38064 ft 412 kts 282°
2026-04-25 20:42 13.96188 -17.96563 37884 ft 417 kts 279°
2026-04-25 20:42 13.96638 -17.99522 37683 ft 416 kts 277°
2026-04-25 20:42 13.96815 -18.02445 37159 ft 415 kts 269°
2026-04-25 20:43 13.96480 -18.05402 36912 ft 414 kts 258°
2026-04-25 20:43 13.95629 -18.08182 36886 ft 403 kts 248°
2026-04-25 20:43 13.94248 -18.10672 36884 ft 401 kts 236°
2026-04-25 20:43 13.92558 -18.12959 36881 ft 401 kts 234°
2026-04-25 20:44 13.89119 -18.17460 36513 ft 397 kts 234°
2026-04-25 20:44 13.87412 -18.19707 35820 ft 401 kts 235°
2026-04-25 20:44 13.85710 -18.21993 35232 ft 403 kts 236°
2026-04-25 20:45 13.84017 -18.24306 34942 ft 404 kts 236°
2026-04-25 20:45 13.82364 -18.26560 34881 ft 391 kts 236°
2026-04-25 20:45 13.78967 -18.30809 34882 ft 383 kts 230°
2026-04-25 20:46 13.76964 -18.32619 34882 ft 385 kts 217°
2026-04-25 20:46 13.74570 -18.33863 34886 ft 389 kts 202°
2026-04-25 20:46 13.71913 -18.34420 34886 ft 394 kts 187°
2026-04-25 20:46 13.69173 -18.34318 34550 ft 397 kts 171°
2026-04-25 20:47 13.66539 -18.33385 33889 ft 408 kts 153°
2026-04-25 20:47 13.64243 -18.31627 33037 ft 419 kts 134°
2026-04-25 20:47 13.62520 -18.29116 32295 ft 445 kts 115°
2026-04-25 20:47 13.61520 -18.26066 31410 ft 454 kts 98°
2026-04-25 20:48 13.61418 -18.22811 30623 ft 464 kts 80°
2026-04-25 20:48 13.62278 -18.19545 30101 ft 485 kts 63°
2026-04-25 20:48 13.64057 -18.16567 29895 ft 495 kts 47°
2026-04-25 20:48 13.66518 -18.14127 29868 ft 501 kts 36°
2026-04-25 20:49 13.72127 -18.09733 29885 ft 507 kts 33°
2026-04-25 20:49 13.77788 -18.05408 29872 ft 507 kts 33°
2026-04-25 20:50 13.83449 -18.01085 29878 ft 507 kts 33°
2026-04-25 20:50 13.89096 -17.96766 29734 ft 500 kts 33°
2026-04-25 20:51 13.91874 -17.94638 28962 ft 496 kts 33°
2026-04-25 20:51 13.94643 -17.92526 28108 ft 495 kts 33°
2026-04-25 20:51 13.97394 -17.90441 27638 ft 484 kts 33°
2026-04-25 20:51 14.00036 -17.88439 27155 ft 458 kts 33°
2026-04-25 20:52 14.02542 -17.86538 26623 ft 438 kts 33°
2026-04-25 20:52 14.04147 -17.85319 26094 ft 429 kts 33°
2026-04-25 20:52 14.07345 -17.82897 25260 ft 426 kts 33°
2026-04-25 20:52 14.09716 -17.81104 24957 ft 421 kts 33°
2026-04-25 20:53 14.12076 -17.79324 24873 ft 420 kts 33°
2026-04-25 20:53 14.14436 -17.77539 24870 ft 420 kts 34°
2026-04-25 20:53 14.16790 -17.75764 24884 ft 420 kts 33°
2026-04-25 20:53 14.19146 -17.73984 24869 ft 419 kts 34°
2026-04-25 20:54 14.21474 -17.72229 24868 ft 420 kts 34°
2026-04-25 20:54 14.23828 -17.70447 24870 ft 420 kts 34°
2026-04-25 20:54 14.26179 -17.68665 24705 ft 417 kts 33°
2026-04-25 20:54 14.28514 -17.66894 24171 ft 415 kts 33°
2026-04-25 20:55 14.30800 -17.65084 23623 ft 416 kts 39°
2026-04-25 20:55 14.32616 -17.62757 23051 ft 418 kts 59°
2026-04-25 20:55 14.33657 -17.59957 22424 ft 420 kts 77°
2026-04-25 20:55 14.33815 -17.56957 21847 ft 419 kts 96°
2026-04-25 20:56 14.33078 -17.54082 21316 ft 415 kts 115°
2026-04-25 20:56 14.31533 -17.51594 20724 ft 411 kts 133°
2026-04-25 20:56 14.29353 -17.49737 20185 ft 405 kts 150°
2026-04-25 20:56 14.26927 -17.48297 19710 ft 400 kts 153°
2026-04-25 20:57 14.24498 -17.46926 19215 ft 396 kts 154°
2026-04-25 20:57 14.22091 -17.45567 18738 ft 393 kts 154°
2026-04-25 20:57 14.19706 -17.44220 18270 ft 389 kts 154°
2026-04-25 20:57 14.17411 -17.42751 17731 ft 389 kts 143°
2026-04-25 20:58 14.15632 -17.40662 17206 ft 389 kts 123°
2026-04-25 20:58 14.14610 -17.38132 16925 ft 388 kts 106°
2026-04-25 20:58 14.13950 -17.35434 16861 ft 389 kts 104°
2026-04-25 20:58 14.13335 -17.32724 16854 ft 388 kts 104°
2026-04-25 20:59 14.12725 -17.30016 16521 ft 387 kts 104°
2026-04-25 20:59 14.12121 -17.27310 15998 ft 385 kts 104°
2026-04-25 20:59 14.11532 -17.24646 15589 ft 378 kts 104°
2026-04-25 20:59 14.10955 -17.22020 15115 ft 374 kts 104°
2026-04-25 21:00 14.10401 -17.19426 14372 ft 366 kts 104°
2026-04-25 21:00 14.10220 -17.18566 14053 ft 365 kts 104°
2026-04-25 21:00 14.08859 -17.11949 11619 ft 346 kts 104°
2026-04-25 21:01 14.08376 -17.09543 10720 ft 339 kts 103°
2026-04-25 21:01 14.07886 -17.07186 9877 ft 331 kts 103°
2026-04-25 21:01 14.07391 -17.04894 8925 ft 325 kts 104°
2026-04-25 21:01 14.07050 -17.02609 7959 ft 325 kts 92°
2026-04-25 21:02 14.07275 -17.00299 7374 ft 323 kts 75°
2026-04-25 21:02 14.08186 -16.98220 6863 ft 318 kts 54°
2026-04-25 21:02 14.09741 -16.96655 6394 ft 310 kts 32°
2026-04-25 21:02 14.11708 -16.95839 6077 ft 304 kts
2026-04-25 21:03 14.13813 -16.95875 6004 ft 305 kts 350°
2026-04-25 21:03 14.15880 -16.96350 5984 ft 303 kts 347°
2026-04-25 21:03 14.17896 -16.96988 5550 ft 302 kts 339°
2026-04-25 21:03 14.19752 -16.97879 5232 ft 293 kts 333°
2026-04-25 21:04 14.21428 -16.98986 5060 ft 280 kts 326°
2026-04-25 21:04 14.22949 -17.00177 4860 ft 269 kts 324°
2026-04-25 21:04 14.24472 -17.01266 4479 ft 264 kts 332°
2026-04-25 21:04 14.26087 -17.02124 4132 ft 260 kts 335°
2026-04-25 21:05 14.27695 -17.02971 4008 ft 261 kts 334°
2026-04-25 21:05 14.29312 -17.03835 4002 ft 262 kts 334°
2026-04-25 21:05 14.30939 -17.04703 3997 ft 263 kts 334°
2026-04-25 21:05 14.32562 -17.05574 4004 ft 262 kts 334°
2026-04-25 21:06 14.34158 -17.06432 4006 ft 261 kts 334°
2026-04-25 21:06 14.35741 -17.07287 4005 ft 249 kts 334°
2026-04-25 21:06 14.37282 -17.07882 4006 ft 227 kts 354°
2026-04-25 21:06 14.37807 -17.07898 4017 ft 220 kts
2026-04-25 21:07 14.40132 -17.07222 4031 ft 203 kts 10°
2026-04-25 21:07 14.41527 -17.07057 4029 ft 201 kts
2026-04-25 21:07 14.42933 -17.07039 4018 ft 202 kts 359°
2026-04-25 21:07 14.44349 -17.07058 4017 ft 204 kts 359°
2026-04-25 21:08 14.45770 -17.07078 3980 ft 204 kts 359°
2026-04-25 21:08 14.47184 -17.07097 3764 ft 202 kts 360°
2026-04-25 21:08 14.48585 -17.07109 3490 ft 201 kts 360°
2026-04-25 21:08 14.49988 -17.07121 3213 ft 202 kts
2026-04-25 21:09 14.52771 -17.07148 2691 ft 194 kts
2026-04-25 21:09 14.54083 -17.07161 2452 ft 186 kts
2026-04-25 21:09 14.55326 -17.07172 2226 ft 171 kts
2026-04-25 21:10 14.56504 -17.07184 2018 ft 167 kts
2026-04-25 21:10 14.57659 -17.07194 1808 ft 166 kts
2026-04-25 21:10 14.58795 -17.07205 1600 ft 164 kts
2026-04-25 21:10 14.59938 -17.07214 1382 ft 164 kts 360°
2026-04-25 21:11 14.61043 -17.07225 1163 ft 151 kts
2026-04-25 21:11 14.62050 -17.07235 982 ft 138 kts 358°
2026-04-25 21:11 14.62966 -17.07243 819 ft 127 kts 358°
2026-04-25 21:11 14.63823 -17.07252 653 ft 120 kts 357°
2026-04-25 21:12 14.64372 -17.07259 540 ft 119 kts 357°
2026-04-25 21:12 14.65206 -17.07288 403 ft 122 kts 358°
2026-04-25 21:12 14.66051 -17.07273 300 ft 117 kts 360°
2026-04-25 21:12 14.66538 -17.07285 299 ft 94 kts
2026-04-25 21:13 14.67199 -17.07282 300 ft 48 kts 359°
2026-04-25 21:13 14.67503 -17.07286 300 ft 52 kts
2026-04-25 21:13 14.67790 -17.07201 302 ft 26 kts 29°
2026-04-25 21:13 14.67829 -17.07165 302 ft 0 kts 58°
2026-04-25 21:14 14.67837 -17.07138 303 ft 0 kts 82°
2026-04-25 21:14 14.67832 -17.07124 301 ft 3 kts 118°
2026-04-25 21:14 14.67825 -17.07115 302 ft 10 kts 128°
2026-04-25 21:15 14.67757 -17.07097 300 ft 6 kts 176°
2026-04-25 21:15 14.67755 -17.07096 300 ft 0 kts 176°
2026-04-25 21:16 14.67689 -17.07096 299 ft 15 kts 179°
2026-04-25 21:16 14.67571 -17.07095 301 ft 19 kts 179°
2026-04-25 21:17 14.67454 -17.07093 301 ft 18 kts 179°